Location: Budapest
(47.4979°N, 19.0402°E)
Time: 04:59:00
(UTC+02:00)

Envisat - Pass Details

Date: 17 October 2017
Orbit: 764 x 766 km, 98.2° (Epoch: 20 October)

Event Time Altitude Azimuth Distance (km) Brightness Sun altitude
Exits shadow 21:08:39 38° 271° (W) 1,154 4.2 -33.3°
Drops below altitude 10° 21:13:07 10° 332° (NNW) 2,312 6.0 -34.0°
Sets 21:15:36 0° 340° (NNW) 3,243 6.8 -34.4°
